Big Rapids, MI

4:50 PM EDT on October 15, 2019 (GMT -0400)
Roben-Hood

Weather History for KRQB - August, 2019

Change the Weather History Date:

Saturday, August 10, 2019

  Actual Average Record
Temperature  
Mean Temperature 64 °F -  
Max Temperature 77 °F 78 °F 89 °F (1992)
Min Temperature 51 °F 55 °F 41 °F (1972)
Degree Days  
Heating Degree Days 1    
Growing Degree Days 14 (Base 50)    
Moisture  
Dew Point 53 °F    
Average Humidity 71    
Maximum Humidity 97    
Minimum Humidity 38    
Precipitation  
Precipitation 0.00 in - - ()
Sea Level Pressure  
Sea Level Pressure 30.00 in    
Wind  
Wind Speed 2 mph (NW)    
Max Wind Speed 14 mph    
Max Gust Speed 18 mph    
Visibility 10 miles    
Events      
Averages and records for this station are not official NWS values.
T = Trace of Precipitation, MM = Missing Value Source: NWS Daily Summary

Daily Weather History Graph

Daily Weather History Graph

Search for Another Location

Airport or City:

Astronomy

Aug. 10, 2019 Rise Set
Actual Time 6:40 AM EDT 8:53 PM EDT
Civil Twilight 6:08 AM EDT 9:24 PM EDT
Nautical Twilight 5:29 AM EDT 10:03 PM EDT
Astronomical Twilight 4:46 AM EDT 10:47 PM EDT
Moon 5:39 PM EDT (8/10) 2:13 AM EDT (8/10)
Length of Visible Light 15h 16m
Length of Day
14h 12m
Waxing Gibbous, 79% of the Moon is Illuminated
Aug 10
Waxing Gibbous
Aug 15
Full
Aug 23
Last Quarter
Aug 30
New
Sep 5
First Quarter

Hourly Weather History & Observations

Time (EDT) Temp. Dew Point Humidity Pressure Visibility Wind Dir Wind Speed Gust Speed Precip Events Conditions
12:15 AM 56.8 °F 55.0 °F 94% 29.97 in 10.0 mi Calm Calm - N/A   Clear
12:16 AM 56.8 °F 55.2 °F 94% 29.97 in 10.0 mi Calm Calm - N/A   Clear
12:39 AM 56.5 °F 54.9 °F 94% 29.97 in 10.0 mi Calm Calm - N/A   Clear
12:57 AM 55.8 °F 54.3 °F 95% 29.97 in 10.0 mi Calm Calm - N/A   Clear
1:15 AM 56.1 °F 54.5 °F 94% 29.97 in 10.0 mi Calm Calm - N/A   Clear
1:16 AM 56.1 °F 54.5 °F 94% 29.97 in 10.0 mi Calm Calm - N/A   Clear
1:35 AM 56.1 °F 54.7 °F 95% 29.97 in 10.0 mi Calm Calm - N/A   Clear
1:36 AM 56.1 °F 54.5 °F 94% 29.97 in 10.0 mi Calm Calm - N/A   Clear
1:55 AM 55.4 °F 54.1 °F 96% 29.97 in 10.0 mi Calm Calm - N/A   Clear
2:18 AM 55.4 °F 54.1 °F 96% 29.97 in 10.0 mi Calm Calm - N/A   Clear
2:36 AM 54.9 °F 53.8 °F 96% 29.97 in 10.0 mi Calm Calm - N/A   Clear
2:55 AM 54.9 °F 54.0 °F 97% 29.98 in 10.0 mi Calm Calm - N/A   Clear
2:56 AM 55.0 °F 54.1 °F 97% 29.98 in 10.0 mi Calm Calm - N/A   Clear
3:15 AM 56.1 °F 54.9 °F 96% 29.98 in 10.0 mi Calm Calm - N/A   Clear
3:39 AM 54.5 °F 52.9 °F 94% 29.97 in 10.0 mi Calm Calm - N/A   Clear
3:57 AM 54.9 °F 53.8 °F 96% 29.97 in 10.0 mi Calm Calm - N/A   Clear
4:15 AM 54.7 °F 53.6 °F 96% 29.98 in 10.0 mi Calm Calm - N/A   Clear
4:16 AM 54.7 °F 53.6 °F 96% 29.98 in 10.0 mi Calm Calm - N/A   Clear
4:35 AM 53.8 °F 52.5 °F 95% 29.99 in 10.0 mi Calm Calm - N/A   Clear
4:36 AM 53.4 °F 52.3 °F 96% 29.99 in 10.0 mi Calm Calm - N/A   Clear
4:55 AM 53.2 °F 52.2 °F 96% 29.99 in 10.0 mi Calm Calm - N/A   Clear
5:00 AM 53.6 °F 52.3 °F 95% 29.99 in 10.0 mi West 3.5 mph - N/A   Clear
5:18 AM 53.6 °F 52.5 °F 96% 29.99 in 10.0 mi Calm Calm - N/A   Clear
5:36 AM 52.5 °F 51.6 °F 97% 29.99 in 10.0 mi Calm Calm - N/A   Clear
5:55 AM 52.2 °F 51.3 °F 97% 29.99 in 10.0 mi Calm Calm - N/A   Clear
5:56 AM 52.2 °F 51.3 °F 97% 29.99 in 10.0 mi Calm Calm - N/A   Clear
6:15 AM 52.5 °F 51.8 °F 97% 29.99 in 10.0 mi Calm Calm - N/A   Scattered Clouds
6:16 AM 52.5 °F 51.6 °F 97% 29.99 in 10.0 mi Calm Calm - N/A   Scattered Clouds
6:39 AM 51.8 °F 50.9 °F 97% 29.99 in 10.0 mi Calm Calm - N/A   Scattered Clouds
6:57 AM 52.0 °F 51.1 °F 97% 30.00 in 10.0 mi Calm Calm - N/A   Clear
7:15 AM 52.2 °F 51.1 °F 96% 30.00 in 10.0 mi Calm Calm - N/A   Clear
7:35 AM 54.1 °F 52.9 °F 95% 30.01 in 10.0 mi Calm Calm - N/A   Clear
7:36 AM 54.1 °F 52.9 °F 95% 30.01 in 10.0 mi Calm Calm - N/A   Clear
7:55 AM 55.6 °F 54.0 °F 94% 30.01 in 10.0 mi Calm Calm - N/A   Clear
8:18 AM 57.2 °F 55.2 °F 93% 30.02 in 10.0 mi Calm Calm - N/A   Clear
8:35 AM 58.6 °F 56.3 °F 92% 30.03 in 10.0 mi Calm Calm - N/A   Clear
8:36 AM 58.8 °F 56.5 °F 92% 30.03 in 10.0 mi Calm Calm - N/A   Clear
8:55 AM 60.6 °F 56.7 °F 87% 30.03 in 10.0 mi Calm Calm - N/A   Clear
9:15 AM 62.1 °F 57.6 °F 85% 30.04 in 10.0 mi Calm Calm - N/A   Clear
9:38 AM 65.3 °F 56.5 °F 73% 30.03 in 10.0 mi Calm Calm - N/A   Clear
9:56 AM 67.1 °F 54.1 °F 63% 30.03 in 10.0 mi SSE 5.8 mph - N/A   Clear
10:15 AM 68.2 °F 54.5 °F 62% 30.02 in 10.0 mi Calm Calm - N/A   Clear
10:35 AM 70.2 °F 55.4 °F 59% 30.02 in 10.0 mi South 4.6 mph - N/A   Clear
10:36 AM 70.2 °F 55.2 °F 59% 30.02 in 10.0 mi SSE 4.6 mph - N/A   Clear
10:59 AM 70.9 °F 55.9 °F 59% 30.03 in 10.0 mi South 4.6 mph - N/A   Clear
11:17 AM 71.2 °F 55.8 °F 58% 30.03 in 10.0 mi Calm Calm - N/A   Clear
11:35 AM 71.6 °F 55.8 °F 57% 30.03 in 10.0 mi WSW 3.5 mph - N/A   Clear
11:55 AM 72.0 °F 54.1 °F 53% 30.03 in 10.0 mi NW 5.8 mph - N/A   Clear
11:56 AM 72.1 °F 54.3 °F 53% 30.03 in 10.0 mi North 4.6 mph - N/A   Clear
12:15 PM 72.9 °F 53.2 °F 50% 30.03 in 10.0 mi NNE 5.8 mph - N/A   Clear
12:37 PM 74.7 °F 53.6 °F 48% 30.03 in 10.0 mi Calm Calm - N/A   Scattered Clouds
12:55 PM 73.6 °F 52.7 °F 48% 30.03 in 10.0 mi NW 6.9 mph - N/A   Scattered Clouds
1:15 PM 76.3 °F 52.3 °F 43% 30.02 in 10.0 mi WNW 9.2 mph - N/A   Scattered Clouds
1:16 PM 76.3 °F 51.8 °F 42% 30.02 in 10.0 mi NW 8.1 mph - N/A   Scattered Clouds
1:35 PM 75.6 °F 50.7 °F 42% 30.02 in 10.0 mi NNE 5.8 mph - N/A   Mostly Cloudy
1:58 PM 74.5 °F 52.2 °F 46% 30.02 in 10.0 mi WNW 9.2 mph - N/A   Scattered Clouds
2:16 PM 76.6 °F 51.1 °F 41% 30.02 in 10.0 mi North 8.1 mph - N/A   Scattered Clouds
2:35 PM 75.4 °F 51.6 °F 43% 30.02 in 10.0 mi WNW 8.1 mph - N/A   Scattered Clouds
2:58 PM 76.8 °F 50.5 °F 40% 30.01 in 10.0 mi NW 8.1 mph 16.1 mph N/A   Clear
3:16 PM 77.5 °F 51.1 °F 40% 30.00 in 10.0 mi WNW 9.2 mph 17.3 mph N/A   Scattered Clouds
3:35 PM 77.2 °F 51.3 °F 40% 30.01 in 10.0 mi NNW 8.1 mph - N/A   Scattered Clouds
3:36 PM 77.4 °F 51.3 °F 40% 30.01 in 10.0 mi North 8.1 mph - N/A   Mostly Cloudy
3:55 PM 77.4 °F 50.0 °F 38% 30.00 in 10.0 mi West 8.1 mph - N/A   Scattered Clouds
4:15 PM 76.8 °F 49.5 °F 38% 30.00 in 10.0 mi WNW 13.8 mph 18.4 mph N/A   Clear
4:20 PM 76.5 °F 50.0 °F 39% 30.00 in 10.0 mi North 8.1 mph 16.1 mph N/A   Clear
4:38 PM 77.0 °F 50.2 °F 39% 30.00 in 10.0 mi North 8.1 mph - N/A   Clear
4:56 PM 77.0 °F 49.3 °F 38% 30.00 in 10.0 mi NNE 5.8 mph - N/A   Clear
5:15 PM 75.9 °F 51.1 °F 42% 30.00 in 10.0 mi WNW 6.9 mph - N/A   Scattered Clouds
5:16 PM 75.9 °F 51.3 °F 42% 30.00 in 10.0 mi WNW 6.9 mph - N/A   Scattered Clouds
5:35 PM 75.7 °F 50.7 °F 41% 30.00 in 10.0 mi NW 9.2 mph 16.1 mph N/A   Clear
5:36 PM 75.7 °F 50.5 °F 41% 30.00 in 10.0 mi NNW 5.8 mph 16.1 mph N/A   Clear
5:58 PM 75.4 °F 51.8 °F 44% 30.00 in 10.0 mi WNW 8.1 mph - N/A   Clear
6:16 PM 75.2 °F 52.9 °F 46% 30.00 in 10.0 mi WNW 8.1 mph - N/A   Clear
6:35 PM 74.5 °F 54.1 °F 49% 30.00 in 10.0 mi NW 5.8 mph - N/A   Clear
6:36 PM 74.5 °F 54.1 °F 49% 30.00 in 10.0 mi NW 5.8 mph - N/A   Clear
6:55 PM 75.2 °F 52.0 °F 44% 30.01 in 10.0 mi NW 9.2 mph - N/A   Clear
7:19 PM 74.3 °F 51.8 °F 45% 30.01 in 10.0 mi NW 9.2 mph - N/A   Clear
7:36 PM 73.9 °F 50.7 °F 44% 30.01 in 10.0 mi WNW 9.2 mph - N/A   Clear
7:55 PM 72.9 °F 51.6 °F 47% 30.01 in 10.0 mi WNW 11.5 mph - N/A   Clear
7:56 PM 72.9 °F 51.4 °F 47% 30.01 in 10.0 mi WNW 9.2 mph - N/A   Clear
8:15 PM 71.2 °F 52.0 °F 51% 30.01 in 10.0 mi WNW 10.4 mph - N/A   Clear
8:39 PM 70.0 °F 54.9 °F 59% 30.01 in 10.0 mi West 9.2 mph - N/A   Clear
8:57 PM 69.1 °F 54.0 °F 58% 30.01 in 10.0 mi West 10.4 mph - N/A   Clear
9:15 PM 66.2 °F 55.8 °F 69% 30.01 in 10.0 mi West 3.5 mph - N/A   Clear
9:16 PM 66.2 °F 55.8 °F 69% 30.01 in 10.0 mi West 3.5 mph - N/A   Clear
9:55 PM 62.8 °F 55.9 °F 78% 30.02 in 10.0 mi West 3.5 mph - N/A   Clear
10:00 PM 62.6 °F 55.8 °F 78% 30.02 in 10.0 mi Calm Calm - N/A   Clear
10:17 PM 61.9 °F 55.6 °F 80% 30.02 in 10.0 mi North 3.5 mph - N/A   Clear
10:36 PM 60.8 °F 55.4 °F 82% 30.03 in 10.0 mi Calm Calm - N/A   Clear
10:55 PM 58.6 °F 55.8 °F 90% 30.02 in 10.0 mi Calm Calm - N/A   Clear
11:15 PM 59.2 °F 56.3 °F 90% 30.02 in 10.0 mi West 4.6 mph - N/A   Clear
11:38 PM 58.3 °F 55.6 °F 91% 30.02 in 10.0 mi Calm Calm - N/A   Clear
11:56 PM 56.8 °F 54.3 °F 91% 30.02 in 10.0 mi Calm Calm - N/A   Clear